Weather History for KBZN - December, 2011

Change the Weather History Date:

Friday, December 16, 2011

  Actual Average Record
Temperature  
Mean Temperature 25 °F 20 °F  
Max Temperature 38 °F 32 °F 60 °F (1939)
Min Temperature 12 °F 9 °F -27 °F (1964)
Degree Days  
Heating Degree Days 40    
Month to date heating degree days 737  
Since 1 July heating degree days 2572  
Cooling Degree Days 0    
Month to date cooling degree days 0  
Year to date cooling degree days 200  
Moisture  
Dew Point 20 °F    
Average Humidity 68    
Maximum Humidity 84    
Minimum Humidity 52    
Precipitation  
Precipitation 0.00 in 0.02 in 0.25 in (1955)
Month to date precipitation 0.07 0.30  
Year to date precipitation 10.57 13.77  
Snow  
Snow 0.00 in 0.20 in 4.00 in (1967)
Month to date snowfall 0.8 3.5  
Since 1 July snowfall 3.0 10.9  
Snow Depth T in    
Sea Level Pressure  
Sea Level Pressure 30.45 in    
Wind  
Wind Speed 3 mph (South)    
Max Wind Speed 24 mph    
Max Gust Speed 26 mph    
Visibility 10 miles    
Events      
T = Trace of Precipitation, MM = Missing Value Source: NWS Daily Summary

Daily Weather History Graph

Daily Weather History Graph

Search for Another Location

Airport or City:

Trip Planner

Search our weather history database for the weather conditions in past years. The results will help you decide how hot, cold, wet, or windy it might be!

Date:

Astronomy

Dec. 16, 2011 Rise Set
Actual Time 7:59 AM MST 4:40 PM MST
Civil Twilight 7:25 AM MST 5:15 PM MST
Nautical Twilight 6:47 AM MST 5:53 PM MST
Astronomical Twilight 6:11 AM MST 6:29 PM MST
Moon 11:37 PM MST (12/16) 11:30 AM MST (12/16)
Length of Visible Light 9h 50m
Length of Day
8h 41m
Waning Gibbous, 64% of the Moon is Illuminated
Dec 16
Waning Gibbous
Dec 17
Last Quarter
Dec 24
New
Dec 31
First Quarter
Jan 9
Full

Hourly Weather History & Observations

Time (MST) Temp. Windchill Dew Point Humidity Pressure Visibility Wind Dir Wind Speed Gust Speed Precip Events Conditions
12:56 AM 28.0 °F 22.8 °F 21.0 °F 75% 30.42 in 10.0 mi WSW 4.6 mph - N/A   Overcast
1:56 AM 24.1 °F - 19.9 °F 84% 30.42 in 10.0 mi Calm Calm - N/A   Overcast
2:56 AM 24.1 °F - 18.0 °F 77% 30.41 in 10.0 mi Calm Calm - N/A   Mostly Cloudy
3:56 AM 24.1 °F 19.7 °F 19.0 °F 81% 30.44 in 10.0 mi West 3.5 mph - N/A   Overcast
4:56 AM 21.9 °F - 17.1 °F 82% 30.46 in 10.0 mi Calm Calm - N/A   Mostly Cloudy
5:56 AM 17.6 °F 9.3 °F 14.0 °F 86% 30.33 in 10.0 mi SSW 5.8 mph - N/A   Clear
6:56 AM 18.0 °F 9.8 °F 14.0 °F 84% 30.48 in 10.0 mi South 5.8 mph - N/A   Clear
7:56 AM 12.2 °F - 8.6 °F 85% 30.32 in 10.0 mi Calm Calm - N/A   Clear
8:56 AM 18.0 °F - 12.9 °F 81% 30.51 in 10.0 mi Calm Calm - N/A   Clear
9:56 AM 26.1 °F 19.4 °F 19.0 °F 75% 30.51 in 10.0 mi South 5.8 mph - N/A   Scattered Clouds
10:56 AM 28.9 °F 25.2 °F 21.0 °F 72% 30.51 in 10.0 mi ENE 3.5 mph - N/A   Overcast
11:56 AM 32.0 °F - 21.0 °F 64% 30.48 in 10.0 mi Calm Calm - N/A   Overcast
12:56 PM 35.6 °F - 19.4 °F 52% 30.35 in 10.0 mi Calm Calm - N/A   Overcast
1:56 PM 37.0 °F - 21.0 °F 52% 30.46 in 10.0 mi Calm Calm - N/A   Overcast
2:56 PM 37.0 °F - 23.0 °F 57% 30.46 in 10.0 mi Calm Calm - N/A   Overcast
3:56 PM 36.0 °F 33.3 °F 21.9 °F 57% 30.47 in 10.0 mi Variable 3.5 mph - N/A   Overcast
4:56 PM 34.0 °F 31.0 °F 21.0 °F 59% 30.48 in 10.0 mi East 3.5 mph - N/A   Overcast
5:56 PM 34.0 °F 29.8 °F 21.9 °F 61% 30.50 in 10.0 mi East 4.6 mph - N/A   Overcast
6:56 PM 35.1 °F 32.2 °F 21.9 °F 59% 30.51 in 10.0 mi South 3.5 mph - N/A   Overcast
7:56 PM 33.1 °F 26.9 °F 23.0 °F 66% 30.53 in 10.0 mi SSE 6.9 mph 26.5 mph N/A   Overcast
8:56 PM 33.8 °F 29.6 °F 23.0 °F 65% 30.37 in 10.0 mi East 4.6 mph - N/A   Overcast
9:56 PM 33.8 °F 30.8 °F 24.8 °F 70% 30.38 in 10.0 mi South 3.5 mph - N/A   Overcast
10:56 PM 33.1 °F - 25.0 °F 72% 30.49 in 10.0 mi Calm Calm - N/A   Overcast
11:56 PM 30.0 °F 26.5 °F 23.0 °F 75% 30.49 in 10.0 mi WNW 3.5 mph - N/A   Overcast